IRIDIUM 47 DEB, 40251

Orbit data source: Space-Track

IRIDIUM 47 DEB, 40251 is space debris in LEO originally from a launch on Sat, 20 Dec 1997 UTC launched from the Air Force Western Test Range (AFWTR). Debris objects in space refer to the collection of defunct objects orbiting the Earth. Examples of debris include non-operational satellites, rocket bodies, and fragments generated from explosions, collisions, or faulty payload assembly.

Loading next visibility...
Identifier
40251, 1997-082L
Orbit
LEO
Country
Flag of USUS
Related business
Manufacturer
Unknown
Mission
Spacecraft
Bus & Motor
Unknown
Mass
Unknown
Launch date (UTC)
1997-12-20 (28 years ago)
Launch vehicle
Unknown
Launch site
Air Force Western Test Range (AFWTR)
Object type
Payload
Rocket body
Debris
Shape & HBR
Unknown shape, 0.1 m
Radar Cross Section
Small (<0.1 m²)

Expand to show TLE details & history
Last TLE update: 10 hours ago

TLE from 10 hours ago
0 IRIDIUM 47 DEB
1 40251U 97082L   25310.87757405  .00014570  00000-0  52356-2 0  9992
2 40251  86.3247 110.8366 0128208 150.0222 210.8394 14.29223440569921
Epoch: 2025-11-06T21:03Z
TLE epoch observation values (Epoch: 2025-11-06T21:03:42.397Z)
Latitude
-0.00003°
Longitude
108.58036°
Altitude
876.648 km
Speed
7.373 km/s
True Right ascension
07h 23m 20s
True Declination
0° 00' 00"
Sunlit
Object was in daylight at epoch
Visualization orbit readout
Latitude
Unknown
Longitude
Unknown
Altitude
Unknown
Speed
Unknown
Apparent Right ascension
Unknown
Apparent Declination
Unknown
Sunlit
N/A
Visualization observer readout
Local Sidereal Time
02:40:56
Azimuth
Unknown
Elevation
Unknown
Doppler factor
Unknown
Orbital elements
Apogee altitude
883.218 km
Perigee altitude
699.382 km
Semi-major axis
7,169.437 km
Eccentricity
0.01282
Inclination
86.3247°
RAAN
110.8366°
Arg. of periapsis
150.0222°
True anomaly
210.09651°
Mean anomaly
210.8394°
Eccentric anomaly
210.46694°
Mean motion
3.57533 °/min
Orbital period
100.69 mins
BSTAR
0.0052356
Loading maneuver chart data...
Computing Atmospheric mass density...

Documentation

Showing up to 5 results
|